Date,TemperatureHighF,TemperatureAvgF,TemperatureLowF,DewpointHighF,DewpointAvgF,DewpointLowF,HumidityHigh,HumidityAvg,HumidityLow,PressureMaxIn,PressureMinIn,WindSpeedMaxMPH,WindSpeedAvgMPH,GustSpeedMaxMPH,PrecipitationSumIn
2013-1-1,46.3,40.9,36.9,36.1,30.7,21.8,77,67,51,30.00,29.88,6,1,6,0.00
2013-1-2,38.3,35.1,30.8,30.8,29.2,26.1,85,79,73,30.10,29.96,4,1,4,0.00
2013-1-3,39.8,30.2,22.1,25.4,19.3,15.9,80,64,45,30.21,30.10,4,0,4,0.00
2013-1-4,43.2,32.0,23.4,23.9,19.7,16.3,77,62,41,30.21,30.10,7,2,7,0.00
2013-1-5,45.9,34.8,22.7,28.4,21.7,16.0,77,60,39,30.36,30.15,4,1,4,0.00
2013-1-6,47.3,39.7,30.4,31.6,28.9,24.2,79,65,53,30.17,30.03,5,1,5,0.01
2013-1-7,42.1,36.8,26.1,29.5,26.0,20.6,82,65,56,30.44,30.14,6,1,6,0.00
2013-1-8,53.8,36.4,23.4,33.8,26.0,19.3,87,69,37,30.41,30.30,8,1,8,0.00
2013-1-9,59.4,43.3,26.1,46.8,35.3,21.3,86,74,53,30.42,30.26,6,1,6,0.00
2013-1-10,56.2,43.5,29.9,36.6,30.0,24.1,80,60,41,30.58,30.42,3,1,3,0.00
2013-1-11,48.6,45.1,41.2,44.7,36.1,28.4,91,71,55,30.44,30.09,5,1,5,0.00
2013-1-12,70.7,52.8,39.6,57.3,47.9,37.7,94,84,60,30.16,30.07,4,1,4,1.32
2013-1-13,68.8,56.0,44.1,58.5,50.6,41.4,94,83,65,30.10,29.98,7,1,7,0.00
2013-1-14,62.1,54.4,39.2,56.2,47.7,37.3,93,79,65,30.30,29.98,9,2,9,1.32
2013-1-15,39.2,37.4,35.6,37.4,35.3,33.9,94,92,88,30.32,30.09,7,2,7,0.88
2013-1-16,47.7,40.4,35.5,44.9,38.3,33.6,94,92,89,30.12,29.83,8,1,8,0.16
2013-1-17,46.3,41.6,34.4,42.8,35.9,27.1,91,81,53,30.11,29.97,5,1,5,0.01
2013-1-18,40.5,33.8,28.1,30.7,20.1,13.6,85,59,36,30.44,30.10,7,1,7,0.00
2013-1-19,68.0,40.2,30.1,35.3,25.0,20.3,71,56,25,30.39,30.00,7,2,7,0.00
2013-1-20,55.4,44.5,28.8,32.9,22.7,5.7,62,43,24,30.08,29.89,10,3,10,0.00
2013-1-21,47.9,35.1,25.0,21.9,15.0,6.4,70,45,28,30.08,29.80,10,2,10,0.00
2013-1-22,28.1,19.9,14.4,9.5,-1.0,-5.5,51,40,29,30.24,29.93,9,3,10,0.00
2013-1-23,30.8,20.6,9.0,14.4,2.5,-2.2,70,46,30,30.29,30.05,6,1,6,0.00
2013-1-24,25.6,20.4,11.9,16.5,7.8,0.9,84,60,38,30.50,30.00,12,2,12,0.00
2013-1-25,25.2,17.9,9.7,17.6,9.1,1.2,74,68,50,30.49,30.00,4,1,4,0.00
2013-1-26,39.2,28.3,20.7,24.8,19.7,15.3,82,70,54,30.41,30.01,7,1,7,0.00
2013-1-27,40.7,28.6,17.8,25.2,19.7,12.6,82,70,54,30.54,30.40,5,1,5,0.00
2013-1-28,53.8,42.0,32.2,44.5,35.2,23.8,86,77,69,30.42,30.10,6,2,6,0.00
2013-1-29,72.0,56.7,45.0,56.1,48.4,41.5,90,75,56,30.15,29.99,6,1,6,0.00
2013-1-30,69.5,60.9,52.0,60.2,54.9,45.5,93,81,71,29.99,29.32,12,2,12,0.89
2013-1-31,56.2,38.1,27.4,54.0,26.8,16.7,93,64,45,29.90,29.30,12,4,12,0.08
2013-2-1,32.2,23.8,13.5,26.4,9.7,2.8,84,55,39,30.34,29.78,14,4,14,0.00
2013-2-2,34.0,22.5,12.6,21.9,12.7,3.7,81,66,41,30.34,29.97,6,1,7,0.00
2013-2-3,38.5,31.9,27.0,28.4,22.7,13.8,85,70,52,29.97,29.79,8,2,8,0.00
2013-2-4,38.5,29.8,19.1,27.7,16.9,9.8,70,59,50,30.08,29.89,7,2,8,0.00
2013-2-5,51.5,42.3,34.2,35.5,31.4,26.8,76,65,54,29.92,29.82,7,2,7,0.00
2013-2-6,49.0,39.4,30.1,31.2,27.7,20.9,81,64,45,30.32,29.92,7,2,7,0.00
2013-2-7,43.6,35.2,27.5,30.6,26.0,20.6,83,69,57,30.38,30.15,6,1,6,0.00
2013-2-8,44.6,37.0,32.6,37.6,29.8,23.0,88,76,58,30.14,29.80,14,2,14,0.10
2013-2-9,43.6,34.5,23.4,23.0,15.8,11.1,64,48,29,30.37,30.01,11,2,11,0.00
2013-2-10,46.8,32.9,17.5,28.2,18.9,10.8,80,58,36,30.43,30.18,11,2,11,0.02
2013-2-11,62.3,48.7,38.9,51.0,39.1,24.9,83,70,39,30.18,29.79,6,2,7,0.00
2013-2-12,52.6,42.4,37.4,27.7,25.2,21.2,62,51,32,29.99,29.90,7,2,8,0.00
2013-2-13,47.5,37.7,31.9,32.9,27.1,19.8,89,66,47,29.95,29.65,8,1,10,0.07
2013-2-14,48.6,36.1,26.3,31.8,27.5,22.2,91,73,49,30.03,29.81,4,1,5,0.00
2013-2-15,56.0,38.4,25.6,37.9,29.7,20.4,89,73,46,30.05,29.89,6,1,6,0.09
2013-2-16,38.2,33.2,26.8,30.9,25.2,15.6,91,73,55,30.00,29.85,6,1,9,0.00
2013-2-17,27.5,23.4,16.4,16.4,8.6,4.2,69,54,40,30.20,29.88,9,3,11,0.00
2013-2-18,47.3,25.9,13.7,23.2,12.1,4.7,74,57,35,30.35,30.11,6,1,6,0.00
2013-2-19,50.0,39.6,35.1,40.0,28.9,19.0,84,66,48,30.12,29.74,8,2,10,0.01
2013-2-25,42.1,34.0,27.4,23.9,19.2,16.4,66,55,48,30.19,30.14,3,0,3,0.00
2013-2-26,41.6,34.4,25.6,39.5,28.8,16.7,93,80,65,30.19,29.63,13,2,13,0.83
2013-2-27,52.0,42.8,36.4,42.8,35.5,30.6,92,76,56,29.73,29.59,7,2,7,0.00
2013-2-28,42.5,38.7,34.6,32.3,27.7,25.0,79,65,51,29.78,29.66,8,2,8,0.01
2013-3-1,39.2,37.1,33.3,27.8,25.5,21.4,72,63,58,29.92,29.77,5,2,5,0.00
2013-3-2,36.4,33.0,30.6,27.1,21.8,17.8,76,63,54,29.91,29.82,6,1,6,0.00
2013-3-3,38.9,30.0,22.9,20.9,16.8,12.9,77,58,45,29.98,29.82,5,2,5,0.00
2013-3-4,46.4,32.4,22.9,19.0,13.8,11.2,65,48,28,30.05,29.96,6,2,8,0.00
2013-3-5,52.2,38.7,26.3,31.5,24.6,14.9,92,59,36,30.07,29.73,10,2,13,0.02
2013-3-6,33.5,32.9,32.0,31.6,29.8,28.4,93,89,85,29.72,29.65,0,0,0,0.00
2013-3-7,37.8,37.4,37.1,27.3,26.7,25.5,67,65,62,30.22,30.21,4,2,7,0.00
2013-3-8,42.1,37.2,29.2,28.4,25.6,22.5,76,63,54,30.33,30.19,7,2,12,0.00
2013-3-9,29.2,25.5,22.7,22.3,20.2,18.0,84,80,75,30.34,30.31,2,0,3,0.00
2013-3-10,63.0,53.7,48.2,35.2,31.4,25.9,54,43,32,30.31,30.19,8,2,8,0.00
2013-3-11,60.1,51.2,42.5,48.5,34.8,24.4,76,54,34,30.21,29.89,10,2,15,0.00
2013-3-12,58.7,52.5,37.1,51.8,43.2,26.9,92,72,46,30.02,29.75,9,2,13,0.79
2013-3-13,46.1,37.3,29.2,32.2,23.8,15.9,79,60,36,30.11,29.92,10,3,13,0.00
2013-3-14,38.5,32.4,29.9,18.8,17.0,15.0,59,53,42,30.13,30.10,10,2,10,0.00
2013-3-15,58.5,42.5,26.8,37.0,25.3,14.3,60,51,43,30.13,29.81,8,2,9,0.00
2013-3-16,59.8,47.3,38.0,53.8,39.9,28.5,87,76,52,29.90,29.64,9,2,11,0.18
2013-3-17,40.7,35.9,32.0,36.8,32.7,29.5,92,88,82,30.24,29.90,7,2,8,0.17
2013-3-18,38.2,33.3,31.9,32.6,30.1,29.0,92,88,76,30.26,29.89,5,1,5,0.22
2013-3-19,56.3,43.2,32.9,39.1,27.2,6.8,92,60,20,29.98,29.76,15,4,15,0.33
2013-3-20,51.7,39.8,27.7,21.3,15.3,9.6,57,38,23,30.03,29.77,8,3,9,0.00
2013-3-21,37.8,30.5,23.4,27.0,14.6,8.6,76,52,37,29.94,29.79,10,3,10,0.00
2013-3-22,48.2,33.9,20.9,20.7,15.3,9.5,66,48,31,30.02,29.88,9,2,9,0.00
2013-3-23,54.9,37.7,21.2,25.8,19.1,13.2,75,50,24,30.06,29.91,8,1,8,0.00
2013-3-24,43.4,34.4,30.6,28.2,23.4,16.5,83,65,43,29.99,29.63,12,1,12,0.00
2013-3-25,38.5,34.1,30.1,33.8,29.0,25.7,88,82,76,29.73,29.53,2,0,2,0.40
2013-3-26,46.4,37.5,30.4,33.8,27.9,25.2,83,69,50,30.06,29.73,8,1,8,0.20
2013-3-27,44.3,36.7,27.7,29.2,25.4,22.1,82,64,47,30.18,30.06,10,2,12,0.00
2013-3-28,45.5,38.0,28.4,28.0,25.3,21.5,76,61,47,30.26,30.14,8,2,9,0.00
2013-3-29,55.1,43.4,30.6,34.0,27.3,21.4,81,56,33,30.29,30.16,6,1,7,0.00
2013-3-30,61.6,44.5,27.7,34.1,27.3,20.7,76,53,32,30.25,30.09,6,1,6,0.00
2013-3-31,58.0,47.9,40.1,49.5,39.3,26.6,86,73,47,30.09,29.77,5,1,6,0.02
2013-4-1,59.6,47.4,36.4,46.2,35.5,21.8,86,65,45,30.02,29.81,13,2,13,0.00
2013-4-2,49.0,39.8,29.2,21.8,15.6,10.0,64,39,21,30.18,30.02,10,3,10,0.00
2013-4-3,51.5,38.1,23.2,22.3,14.9,10.8,74,42,20,30.37,30.17,8,2,8,0.00
2013-4-4,50.2,36.5,25.7,30.5,19.1,10.2,84,51,33,30.39,30.05,9,2,9,0.17
2013-4-5,63.7,47.5,34.9,42.6,31.9,26.4,86,60,28,30.07,29.87,8,1,8,0.20
2013-4-6,61.0,48.2,34.0,27.8,22.9,14.1,55,38,25,30.31,30.07,8,2,10,0.00
2013-4-7,72.0,55.8,40.9,46.1,36.8,23.2,63,49,38,30.23,30.02,8,2,10,0.00
2013-4-8,80.1,64.2,49.3,50.9,45.4,39.3,72,52,33,30.13,29.99,8,1,9,0.00
2013-4-9,84.8,69.7,55.8,57.1,51.4,46.2,70,54,37,30.16,30.02,5,1,6,0.00
2013-4-10,89.3,77.3,62.6,59.9,54.7,48.8,62,47,33,30.05,29.88,8,2,8,0.00
2013-4-11,87.1,72.7,55.8,60.7,54.4,47.4,77,54,37,29.94,29.77,10,2,12,0.00
2013-4-12,76.5,68.1,57.8,63.6,54.3,37.8,92,63,39,29.83,29.63,9,3,11,0.78
2013-4-13,71.6,55.9,40.5,42.8,35.0,25.9,80,47,24,30.01,29.82,8,2,8,0.01
2013-4-14,73.8,58.4,40.7,45.9,37.0,27.9,66,46,33,30.13,30.01,8,2,11,0.00
2013-4-15,66.4,57.2,52.2,52.0,48.1,40.9,86,72,49,30.28,30.11,8,2,9,0.13
2013-4-16,78.7,64.6,56.0,61.4,55.6,49.9,86,73,54,30.31,30.17,9,2,11,0.00
2013-4-17,82.6,68.8,58.0,65.3,58.5,54.3,88,71,45,30.26,30.15,8,2,10,0.00
2013-4-18,79.2,68.6,61.6,64.3,58.3,54.2,84,70,49,30.22,30.00,9,3,13,0.00
2013-4-19,76.5,67.0,53.1,63.4,57.8,41.6,87,73,62,30.00,29.67,14,3,14,0.33
2013-4-20,62.3,50.3,40.0,41.3,30.0,23.8,68,47,28,30.34,29.86,7,3,9,0.00
2013-4-21,59.4,46.6,33.7,35.2,28.4,23.9,69,50,36,30.57,30.34,7,2,9,0.01
2013-4-22,64.1,48.2,32.6,37.6,30.5,23.9,74,52,33,30.54,30.35,7,2,10,0.00
2013-4-23,66.4,53.8,43.6,47.2,40.3,34.1,74,61,47,30.38,30.12,5,2,5,0.00
2013-4-24,62.3,53.7,45.0,53.1,45.1,38.5,82,73,60,30.13,29.96,3,1,3,0.01
2013-4-25,69.5,54.0,42.8,44.2,33.2,26.2,68,47,25,30.34,30.07,5,2,5,0.00
2013-4-26,69.5,53.7,34.6,40.4,34.5,26.7,79,50,34,30.47,30.34,5,1,5,0.00
2013-4-27,72.4,59.6,42.1,46.3,40.9,34.1,74,52,37,30.41,30.28,8,2,8,0.00
2013-4-28,59.0,55.5,53.5,50.8,45.8,41.6,79,70,54,30.28,30.14,8,1,8,0.09
2013-4-29,70.7,59.0,51.7,57.2,51.0,45.5,85,75,59,30.16,30.01,5,1,5,0.01
2013-4-30,69.7,60.3,54.7,55.6,52.6,49.5,84,76,59,30.31,30.10,5,2,5,0.00
2013-5-1,70.6,61.3,52.7,53.7,45.7,39.3,86,60,32,30.41,30.29,7,2,7,0.00
2013-5-2,71.6,59.1,42.7,50.5,42.5,35.3,78,56,39,30.42,30.32,8,2,9,0.00
2013-5-3,68.4,55.7,40.3,50.6,43.6,35.8,89,65,47,30.39,30.27,8,2,11,0.00
2013-5-4,67.7,54.1,38.2,49.2,41.8,33.3,86,64,49,30.33,30.18,7,2,8,0.00
2013-5-5,64.8,56.1,41.4,44.6,40.7,34.6,79,57,39,30.23,30.12,9,3,11,0.00
2013-5-6,61.7,55.4,50.0,55.6,50.3,43.8,93,83,70,30.16,30.00,6,2,7,0.59
2013-5-7,63.9,57.1,52.0,59.3,54.6,49.4,93,91,83,30.02,29.92,5,2,6,1.61
2013-5-8,65.9,55.3,47.9,57.8,51.9,45.2,95,89,72,30.03,29.96,4,1,4,0.39
2013-5-9,77.0,60.0,47.0,61.6,51.6,44.6,94,76,40,30.08,29.98,5,1,5,0.01
2013-5-10,83.2,66.2,49.7,62.8,55.7,45.9,89,71,42,30.09,29.90,7,1,7,0.34
2013-5-11,77.0,66.3,59.2,64.2,59.0,55.2,92,78,56,29.96,29.78,7,1,7,0.02
2013-5-12,61.9,56.2,43.7,55.0,39.1,30.0,84,55,32,30.08,29.84,6,2,8,0.00
2013-5-13,57.6,47.2,37.1,36.7,31.2,26.9,79,56,33,30.21,30.07,6,1,7,0.00
2013-5-14,69.5,52.5,32.4,44.7,37.0,26.8,83,58,37,30.24,30.02,5,1,5,0.00
2013-5-15,89.8,70.6,51.8,65.1,52.2,41.9,72,54,26,30.04,29.80,7,1,10,0.00
2013-5-16,68.0,65.2,63.7,51.4,50.2,49.2,63,58,51,29.90,29.89,1,0,2,0.00
2013-5-17,66.4,65.3,64.4,61.1,59.9,59.1,86,83,80,30.17,30.14,1,0,2,0.00
2013-5-18,73.3,65.9,62.3,64.7,60.2,57.7,88,82,71,30.24,30.15,5,1,7,0.00
2013-5-19,74.5,66.7,61.0,64.5,60.6,57.2,88,81,70,30.21,30.12,4,1,4,0.00
2013-5-20,82.3,72.0,63.0,69.0,64.2,59.1,90,77,59,30.15,30.04,5,1,5,0.00
2013-5-21,88.0,74.2,58.9,71.7,64.8,56.0,91,74,45,30.07,29.95,6,1,6,0.00
2013-5-22,90.2,74.8,63.9,70.9,64.8,59.9,90,73,46,30.02,29.90,6,1,8,0.00
2013-5-23,69.8,65.1,63.2,65.3,61.8,60.3,92,89,84,29.97,29.93,2,0,3,0.00
2013-5-24,87.1,55.4,46.6,55.7,36.0,31.8,60,49,26,30.23,30.08,8,2,8,0.00
2013-5-25,65.2,53.7,37.8,39.6,33.8,29.8,78,49,28,30.29,30.17,6,1,6,0.00
2013-5-26,77.9,58.7,40.7,48.3,36.7,29.2,86,49,21,30.29,30.18,5,1,6,0.00
2013-5-27,66.2,55.9,40.7,51.5,43.8,32.9,80,65,49,30.33,30.21,2,0,3,0.00
2013-5-28,84.4,68.9,51.8,65.8,57.5,47.3,87,69,49,30.23,30.11,4,1,6,0.00
2013-5-29,87.8,75.7,62.8,68.9,62.2,56.7,81,65,46,30.21,30.14,6,1,6,0.00
2013-5-30,91.8,78.1,64.1,69.0,62.3,58.2,81,60,41,30.27,30.19,5,1,5,0.00
2013-5-31,87.1,75.6,60.7,66.4,61.7,56.5,87,64,46,30.23,30.10,4,1,4,0.00
2013-6-1,90.0,77.4,65.0,68.5,63.7,58.7,81,64,46,30.12,30.00,4,1,4,0.00
2013-6-2,81.4,73.6,66.1,68.6,63.6,58.1,78,71,62,30.01,29.91,5,1,5,0.00
2013-6-3,81.0,71.0,66.4,68.8,60.5,56.4,86,70,55,30.04,29.89,2,0,2,0.00
2013-6-4,76.0,67.4,55.3,59.5,49.5,42.8,85,56,33,30.18,30.04,3,1,5,0.00
2013-6-5,83.9,69.5,56.3,60.4,54.9,46.3,79,61,38,30.21,30.08,8,1,8,0.00
2013-6-6,68.8,64.0,59.9,58.6,54.7,52.8,88,72,65,30.10,30.02,5,1,5,0.24
2013-6-8,82.4,75.0,65.7,70.1,61.5,56.5,80,64,47,30.15,30.00,4,1,4,0.05
2013-6-9,80.3,69.9,60.1,70.6,63.9,56.9,91,82,65,30.24,30.12,5,0,5,0.14
2013-6-10,79.6,69.3,63.2,73.8,66.6,61.5,94,91,78,30.16,29.87,3,0,5,2.20
2013-6-11,79.6,70.9,62.3,71.9,63.7,59.3,96,79,58,29.97,29.89,5,1,5,0.01
2013-6-12,87.8,76.0,63.0,72.4,66.0,58.4,88,72,53,29.98,29.87,3,1,4,0.00
2013-6-13,70.7,69.4,62.5,65.7,64.8,55.8,88,86,79,29.90,29.77,1,0,1,0.04
2013-6-14,76.9,67.8,60.1,57.2,54.5,51.8,80,63,48,30.08,29.76,4,1,6,0.00
2013-6-15,59.9,57.6,55.3,54.1,52.5,51.1,86,83,79,30.10,30.08,2,0,2,0.00
2013-6-17,86.8,76.4,64.8,73.4,67.9,61.6,90,76,57,30.03,29.96,3,1,5,0.27
2013-6-18,74.9,67.4,62.3,69.8,64.0,59.7,93,89,80,30.02,29.87,3,0,3,0.25
2013-6-19,77.6,68.2,60.5,66.3,62.4,58.5,94,82,62,30.19,29.97,3,0,4,0.00
2013-6-20,80.5,71.9,63.5,69.8,63.7,60.3,90,76,59,30.30,30.20,6,1,6,0.00
2013-6-21,85.0,74.0,60.1,68.6,60.8,54.4,83,64,50,30.33,30.26,5,1,5,0.00
2013-6-22,87.1,73.4,58.0,68.2,62.9,54.1,89,71,52,30.30,30.19,4,1,5,0.00
2013-6-23,86.9,75.5,67.1,72.5,66.3,62.1,89,74,51,30.25,30.14,3,0,4,0.01
2013-6-24,90.4,72.7,63.5,74.7,65.5,60.3,90,79,46,30.23,30.14,6,0,8,0.06
2013-6-25,88.6,77.3,65.2,75.8,69.2,61.8,92,77,58,30.15,30.00,3,0,3,0.00
2013-6-26,89.6,77.4,70.0,75.3,69.8,66.2,88,78,56,30.02,29.96,5,0,5,0.00
2013-7-2,71.6,70.7,70.2,67.6,67.0,66.6,89,88,87,30.21,30.20,1,0,4,0.00
2013-7-3,80.6,74.3,70.2,75.0,69.8,66.5,92,86,78,30.30,30.20,4,0,4,0.12
2013-7-4,93.4,76.0,68.6,78.0,70.2,66.2,93,83,61,30.32,30.23,5,1,5,0.16
2013-7-5,86.2,77.8,67.5,75.3,70.4,64.7,92,79,62,30.30,30.21,5,1,5,0.00
2013-7-6,89.3,78.8,68.8,75.6,69.7,65.7,90,75,57,30.28,30.16,4,1,6,0.00
2013-7-7,87.7,76.0,68.9,74.8,69.0,64.7,91,80,61,30.21,30.08,6,1,6,0.12
2013-7-8,83.7,74.2,65.9,72.5,68.1,63.2,93,82,65,30.21,30.13,3,0,5,0.00
2013-7-9,82.8,75.5,67.7,74.0,69.5,64.4,91,82,71,30.20,30.10,2,0,3,0.00
2013-7-10,85.9,75.9,71.3,76.9,70.6,67.5,89,84,71,30.11,29.98,3,0,5,0.01
2013-7-11,72.4,71.6,71.3,68.0,67.8,67.5,88,88,86,29.99,29.95,2,0,2,0.00
2013-7-13,76.3,73.8,71.6,69.8,69.0,67.9,89,85,80,30.31,30.25,1,0,1,0.15
2013-7-14,90.2,78.3,67.3,79.3,69.6,64.3,91,76,58,30.40,30.32,5,1,5,0.07
2013-7-15,92.7,82.5,68.2,75.3,70.7,63.9,87,68,55,30.41,30.30,2,0,3,0.06
2013-7-16,91.8,80.2,68.0,78.6,71.0,63.0,85,74,57,30.36,30.26,2,0,4,0.00
2013-7-17,94.5,80.0,70.2,80.1,71.5,65.1,85,76,58,30.33,30.20,2,0,2,0.00
2013-7-18,93.4,80.3,69.5,79.8,71.2,63.7,84,75,56,30.24,30.11,3,0,3,0.00
2013-7-19,91.8,78.2,70.2,78.2,69.3,62.6,81,75,59,30.13,30.00,5,0,5,0.04
2013-7-20,88.2,78.8,69.5,74.9,67.6,61.2,77,69,61,30.02,29.93,4,1,5,0.00
2013-7-22,72.0,71.7,71.5,12.5,12.3,12.1,1,1,1,29.87,29.86,0,0,0,0.00
2013-7-23,88.9,78.7,69.8,65.3,31.3,10.8,46,17,1,29.87,29.75,2,0,2,0.02
2013-7-24,83.9,74.1,66.2,55.9,20.3,3.6,39,9,1,30.00,29.79,3,0,4,0.00
2013-7-25,78.1,70.3,60.5,54.9,26.7,3.7,48,20,1,30.12,29.97,3,0,5,0.00
2013-7-26,81.0,69.0,54.4,58.1,22.6,-1.1,47,15,1,30.17,30.08,3,0,4,0.00
2013-7-27,75.2,69.0,62.1,14.9,10.2,5.0,1,1,1,30.11,29.98,4,0,4,0.16
2013-7-28,83.9,72.6,65.7,57.7,15.4,7.7,42,5,1,30.07,29.95,2,0,3,0.00
2013-7-29,78.8,69.6,55.6,56.9,28.0,-0.1,49,22,1,30.25,30.07,3,0,3,0.00
2013-7-30,82.6,69.5,55.1,59.7,23.7,-0.4,47,17,1,30.30,30.20,3,0,3,0.00
2013-7-31,80.3,67.7,61.6,41.2,9.5,4.5,25,2,1,30.21,30.07,2,0,2,0.41
2013-8-1,83.2,70.8,65.2,21.1,11.6,7.2,1,1,1,30.07,29.91,2,0,4,0.24
2013-8-2,81.7,72.1,61.4,20.0,12.6,4.4,6,1,1,30.06,29.97,3,0,3,0.01
2013-8-3,80.6,68.5,62.3,19.1,9.9,5.1,6,1,1,30.06,29.99,0,0,0,0.01
2013-8-4,79.0,69.1,58.1,56.3,28.3,-25.0,48,23,1,30.12,30.01,3,0,5,0.00
2013-8-5,78.5,67.3,52.7,56.0,22.8,-2.3,49,17,1,30.18,30.06,4,0,4,0.00
2013-8-6,74.5,70.0,67.0,14.4,11.0,8.6,1,1,1,30.10,30.07,2,0,2,0.04
2013-8-7,82.3,76.4,68.6,35.5,16.1,9.9,19,2,1,30.12,30.05,5,1,5,0.00
2013-8-8,83.9,74.3,68.2,37.9,13.6,0.0,20,1,1,30.10,30.04,4,0,7,0.01
2013-8-9,84.3,37.3,0.0,0.0,0.0,0.0,0,0,100,30.05,29.97,4,1,4,0.00
2013-8-10,0.0,0.0,0.0,0.0,0.0,0.0,0,0,100,30.16,30.05,2,0,2,0.46
2013-8-11,0.0,0.0,0.0,0.0,0.0,0.0,0,0,100,30.18,30.07,2,0,2,0.07
2013-8-12,0.0,0.0,0.0,0.0,0.0,0.0,0,0,100,30.11,29.99,2,0,3,0.05
2013-8-13,0.0,0.0,0.0,0.0,0.0,0.0,0,0,100,30.00,29.84,2,0,3,0.01
2013-8-14,0.0,0.0,0.0,0.0,0.0,0.0,0,0,100,30.19,29.91,3,1,5,0.00
2013-8-15,75.8,53.6,0.0,0.0,0.0,0.0,0,0,100,30.23,30.15,3,0,4,0.28
2013-8-16,77.4,63.5,49.0,0.0,0.0,0.0,0,0,100,30.26,30.18,2,0,4,0.00
2013-8-17,78.3,65.4,50.6,0.0,0.0,0.0,0,0,100,30.31,30.25,3,0,3,0.01
2013-8-18,67.7,63.4,60.7,0.0,0.0,0.0,0,0,100,30.31,30.24,2,0,2,1.14
2013-8-19,79.4,69.0,61.4,0.0,0.0,0.0,0,0,100,30.25,30.11,2,0,3,0.05
2013-8-20,83.2,73.1,64.6,0.0,0.0,0.0,0,0,100,30.25,30.17,3,0,3,0.00
2013-8-21,84.6,71.5,64.3,0.0,0.0,0.0,0,0,100,30.28,30.16,4,0,6,0.27
2013-8-22,81.9,70.8,62.8,0.0,0.0,0.0,0,0,100,30.19,30.05,3,0,3,0.22
2013-8-23,74.0,66.2,59.9,0.0,0.0,0.0,0,0,100,30.21,30.04,3,0,4,0.80
2013-8-24,77.0,65.7,58.9,0.0,0.0,0.0,0,0,100,30.39,30.21,3,0,4,0.00
2013-8-25,78.1,64.9,53.6,0.0,0.0,0.0,0,0,100,30.47,30.33,4,0,4,0.00
2013-8-26,79.6,68.6,57.8,62.1,0.2,0.0,81,0,81,30.37,30.12,2,0,2,0.00
2013-8-27,85.1,72.6,63.2,0.0,0.0,0.0,0,0,100,30.13,30.00,3,0,5,0.00
2013-8-28,76.0,71.5,68.4,0.0,0.0,0.0,0,0,100,30.05,29.89,3,0,3,0.55
2013-8-29,81.7,74.0,66.6,0.0,0.0,0.0,0,0,100,30.10,29.92,2,0,3,0.02
2013-8-30,82.3,70.8,63.4,0.0,0.0,0.0,0,0,100,30.12,29.98,4,0,4,0.00
2013-8-31,85.3,72.9,66.6,0.0,0.0,0.0,0,0,100,30.00,29.90,3,0,3,0.01
2013-9-1,83.2,71.8,63.0,0.0,0.0,0.0,0,0,100,29.95,29.87,3,0,4,0.02
2013-9-2,76.5,70.2,67.9,0.0,0.0,0.0,0,0,100,29.92,29.85,4,0,4,0.00
2013-9-3,82.6,73.4,63.0,0.0,0.0,0.0,0,0,100,30.05,29.84,2,0,3,0.00
2013-9-4,76.0,65.4,53.6,0.0,0.0,0.0,0,0,100,30.17,30.05,2,0,3,0.00
2013-9-5,81.7,66.3,52.9,0.0,0.0,0.0,0,0,100,30.20,30.08,5,0,5,0.00
2013-9-6,72.7,63.4,52.9,0.0,0.0,0.0,0,0,100,30.30,30.18,4,0,4,0.00
2013-9-7,77.4,63.9,50.6,0.0,0.0,0.0,0,0,100,30.20,30.02,4,0,4,0.01
2013-9-8,84.4,70.9,58.7,0.0,0.0,0.0,0,0,100,30.10,29.95,3,0,4,0.00
2013-9-9,78.3,70.0,62.8,0.0,0.0,0.0,0,0,100,30.25,30.10,4,0,4,0.00
2013-9-10,87.5,74.7,63.9,0.0,0.0,0.0,0,0,100,30.26,30.17,3,0,4,0.00
2013-9-11,89.3,76.9,67.3,68.9,1.2,0.0,88,2,87,30.25,30.10,5,0,5,0.00
2013-9-12,72.4,70.5,67.3,68.6,18.1,0.0,89,24,88,30.11,29.87,1,0,1,0.03
2013-9-13,73.3,66.8,58.9,0.0,0.0,0.0,0,0,100,30.03,29.82,6,1,6,0.00
2013-9-14,64.4,56.2,49.9,0.0,0.0,0.0,0,0,100,30.21,30.02,2,0,2,0.00
2013-9-15,75.1,58.8,42.8,0.0,0.0,0.0,0,0,100,30.28,30.13,3,1,3,0.00
2013-9-16,67.3,60.2,52.4,0.0,0.0,0.0,0,0,100,30.29,30.12,4,0,4,0.00
2013-9-17,65.2,56.2,49.3,0.0,0.0,0.0,0,0,100,30.44,30.30,4,1,4,0.00
2013-9-18,69.5,54.7,39.8,0.0,0.0,0.0,0,0,100,30.37,30.21,3,0,3,0.00
2013-9-19,77.6,63.0,51.3,0.0,0.0,0.0,0,0,100,30.24,30.12,5,0,5,0.00
2013-9-20,78.7,66.1,56.2,0.0,0.0,0.0,0,0,100,30.14,30.01,4,0,4,0.00
2013-9-21,72.4,65.5,59.6,0.0,0.0,0.0,0,0,100,30.00,29.75,5,1,5,0.00
2013-9-22,69.3,61.3,54.5,0.0,0.0,0.0,0,0,100,30.02,29.82,2,0,2,0.23
2013-9-23,63.9,54.1,45.7,0.0,0.0,0.0,0,0,100,30.15,30.02,2,0,2,0.00
2013-9-24,69.1,57.9,49.3,0.0,0.0,0.0,0,0,100,30.15,29.99,4,0,4,0.00
2013-9-25,71.3,59.1,48.2,0.0,0.0,0.0,0,0,100,30.04,29.93,2,0,2,0.00
2013-9-26,73.1,61.9,52.2,0.0,0.0,0.0,0,0,100,30.13,29.98,3,1,3,0.00
2013-9-27,73.3,58.3,45.7,0.0,0.0,0.0,0,0,100,30.26,30.13,2,0,2,0.02
2013-9-28,66.4,57.8,49.0,0.0,0.0,0.0,0,0,100,30.34,30.26,1,0,1,0.00
2013-9-29,70.0,58.8,51.1,0.0,0.0,0.0,0,0,100,30.26,30.10,2,0,2,0.00
2013-9-30,73.6,59.2,45.5,0.0,0.0,0.0,0,0,100,30.13,30.02,3,0,3,0.00
2013-10-1,77.2,64.9,55.8,0.0,0.0,0.0,0,0,100,30.16,30.06,0,0,0,0.00
2013-10-2,78.3,63.9,49.9,0.0,0.0,0.0,0,0,100,30.18,30.08,1,0,1,0.00
2013-10-3,79.6,65.0,53.5,0.0,0.0,0.0,0,0,100,30.20,30.11,2,0,2,0.00
2013-10-4,82.4,66.6,54.9,0.0,0.0,0.0,0,0,100,30.18,30.10,3,0,3,0.00
2013-10-5,83.5,68.5,57.6,0.0,0.0,0.0,0,0,100,30.19,30.08,3,0,3,0.01
2013-10-6,84.1,70.4,57.8,63.9,3.1,0.0,80,4,77,30.10,29.96,8,1,10,0.00
2013-10-7,70.2,64.6,53.6,66.0,58.3,43.8,94,80,61,30.13,29.83,5,1,5,1.32
2013-10-8,65.0,54.2,44.1,50.2,45.3,41.6,93,74,48,30.32,30.13,4,1,5,0.00
2013-10-9,59.4,51.7,45.5,50.6,47.2,43.1,93,85,70,30.35,30.26,5,0,5,0.15
2013-10-10,54.2,52.3,50.4,52.7,50.4,48.1,95,93,91,30.26,30.06,2,0,3,0.74
2013-10-11,60.7,56.6,53.5,57.8,54.7,52.0,96,94,88,30.07,30.02,3,0,3,0.05
2013-10-12,65.9,60.8,57.4,62.4,58.6,55.7,96,93,85,30.21,30.04,5,1,5,0.11
2013-10-13,63.2,58.7,56.2,59.4,56.7,54.7,96,93,86,30.35,30.20,4,1,4,0.17
2013-10-14,65.9,59.3,54.0,60.6,56.4,52.0,96,90,80,30.36,30.26,2,0,2,0.02
2013-10-15,66.6,57.3,52.2,59.2,54.0,50.5,96,89,75,30.28,30.14,4,0,4,0.01
2013-10-16,70.2,59.4,50.2,60.8,55.3,48.5,95,87,68,30.14,29.97,3,0,3,0.00
2013-10-17,70.6,63.6,58.7,64.1,59.6,51.5,93,87,76,29.97,29.79,4,0,4,0.04
2013-10-18,62.6,53.5,44.5,51.5,44.0,40.7,90,72,48,30.07,29.92,4,0,4,0.00
2013-10-19,64.3,52.1,41.9,55.3,47.3,39.5,94,84,68,30.03,29.82,4,0,4,0.00
2013-10-20,58.3,48.6,37.6,46.6,36.7,32.9,86,65,43,30.14,29.94,6,1,6,0.00
2013-10-21,65.5,48.9,34.9,46.1,39.9,32.8,93,74,44,30.17,29.98,11,1,11,0.00
2013-10-22,66.6,54.6,46.4,51.1,45.0,40.8,90,72,46,29.98,29.85,5,1,5,0.00
2013-10-23,54.9,47.7,40.9,43.5,37.4,32.6,83,68,51,29.97,29.70,9,1,9,0.00
2013-10-24,49.9,42.7,33.8,34.1,30.1,24.2,81,62,40,30.18,29.97,6,1,6,0.00
2013-10-25,50.8,37.7,27.4,32.9,26.4,23.4,87,66,38,30.35,30.17,5,1,5,0.00
2013-10-26,53.3,40.2,25.2,32.8,27.9,22.2,89,65,39,30.34,29.97,8,1,8,0.00
2013-10-27,58.7,47.6,38.7,39.5,34.8,29.8,82,62,45,30.16,30.00,6,0,6,0.00
2013-10-28,61.9,45.8,31.7,44.4,37.1,28.7,91,74,49,30.30,30.15,4,0,4,0.00
2013-10-29,63.7,49.0,35.3,47.6,41.0,32.6,93,75,54,30.40,30.29,4,0,4,0.00
2013-10-30,60.8,55.1,52.0,55.1,48.7,43.5,90,79,71,30.33,30.20,2,0,2,0.08
2013-10-31,72.0,60.8,51.1,60.6,54.2,49.0,95,80,59,30.20,29.79,9,1,9,0.00
2013-11-1,72.2,64.5,50.6,60.8,54.3,44.6,90,71,45,29.79,29.63,9,2,9,0.07
2013-11-2,65.2,51.7,41.0,50.0,40.3,33.2,92,69,37,29.96,29.72,8,1,8,0.00
2013-11-3,54.7,44.1,32.6,38.9,29.9,22.7,89,61,33,30.43,29.96,8,1,8,0.00
2013-11-4,48.4,37.6,28.4,29.6,25.6,23.1,83,63,45,30.61,30.43,6,1,6,0.00
2013-11-5,54.9,43.5,29.7,43.1,34.2,25.7,88,71,52,30.62,30.46,4,0,4,0.00
2013-11-6,68.4,55.8,48.6,51.0,46.7,42.7,84,73,53,30.46,30.10,8,1,8,0.00
2013-11-7,59.9,50.5,38.2,55.1,41.5,23.9,92,73,47,30.14,29.94,10,1,10,0.04
2013-11-8,49.0,39.4,27.9,32.0,24.7,21.9,79,57,36,30.34,30.13,8,1,8,0.00
2013-11-9,56.2,39.8,24.1,33.6,26.4,20.8,88,62,33,30.34,30.09,8,1,8,0.00
2013-11-10,62.6,48.2,35.3,38.0,27.9,22.3,73,48,23,30.29,30.01,10,2,10,0.00
2013-11-11,60.5,44.4,29.7,33.5,26.2,23.1,81,53,25,30.34,30.04,5,1,5,0.00
2013-11-12,51.8,39.0,26.6,35.5,21.9,13.2,62,50,42,30.43,29.99,9,2,9,0.00
2013-11-13,42.1,32.1,23.4,19.9,15.7,10.2,65,52,29,30.50,30.40,7,1,7,0.00
2013-11-14,59.2,39.4,23.2,21.3,17.4,12.8,67,44,21,30.40,30.24,5,1,5,0.00
2013-11-15,62.1,47.4,32.8,38.3,22.6,15.7,77,40,17,30.30,30.17,7,1,7,0.10
2013-11-16,55.1,48.1,39.4,50.6,44.5,36.2,93,88,77,30.31,30.23,2,0,2,0.05
2013-11-17,64.6,58.2,51.1,57.7,53.4,48.5,92,84,73,30.23,29.78,6,1,6,0.02
2013-11-18,63.7,55.5,44.6,58.7,37.3,24.6,90,54,25,30.01,29.75,10,2,10,0.05
2013-11-19,45.4,40.4,30.6,28.7,24.9,22.0,73,54,45,30.38,30.00,8,1,8,0.00
2013-11-20,44.6,34.6,27.9,27.5,23.3,20.4,84,65,43,30.52,30.38,4,1,5,0.00
2013-11-21,50.6,40.4,28.8,40.5,33.3,22.4,84,76,67,30.55,30.39,3,0,3,0.00
2013-11-22,66.8,56.1,45.4,54.5,48.9,40.5,85,77,64,30.40,30.06,6,1,6,0.00
2013-11-23,56.7,44.5,30.2,48.2,27.3,11.9,77,54,23,30.23,30.06,13,3,13,0.00
2013-11-24,30.1,24.0,15.5,12.9,4.8,1.5,66,44,33,30.52,30.23,11,2,11,0.00
2013-11-25,38.5,25.9,13.3,14.4,10.6,5.0,79,55,30,30.52,30.31,5,1,5,0.00
2013-11-26,43.9,36.9,32.8,41.9,29.1,13.3,94,75,40,30.33,29.66,6,1,6,1.36
2013-11-27,38.0,34.3,25.9,35.6,28.2,13.1,94,79,55,30.10,29.59,10,2,10,0.10
2013-11-28,36.0,27.5,19.1,22.3,17.4,13.0,82,66,48,30.43,30.10,6,1,8,0.00
2013-11-29,40.1,29.0,19.6,27.2,21.2,16.2,89,73,54,30.67,30.42,5,1,5,0.00
2013-11-30,40.1,27.5,17.8,27.4,20.3,14.5,88,75,55,30.68,30.34,4,0,4,0.00
2013-12-1,50.8,32.5,22.3,35.3,24.7,18.0,86,74,47,30.34,30.08,3,0,3,0.00
2013-12-3,56.5,47.4,38.0,42.8,38.2,33.6,85,71,58,30.01,29.90,2,0,2,0.00
2013-12-4,63.5,49.0,37.8,51.6,43.2,33.8,89,81,64,30.07,29.98,4,1,4,0.00
2013-12-5,69.5,58.1,47.5,58.1,52.8,45.1,92,83,67,30.08,29.97,5,1,6,0.05
2013-12-6,61.6,49.7,38.7,59.3,47.9,36.9,95,94,90,30.17,29.92,11,2,11,1.34
2013-12-7,43.0,36.3,27.4,37.2,31.4,23.0,95,83,67,30.52,30.14,5,1,5,0.05
2013-12-8,32.2,29.0,27.0,30.7,25.4,21.2,94,86,72,30.54,30.26,6,1,6,0.00
2013-12-9,50.4,37.7,29.9,47.0,35.6,27.9,95,92,85,30.27,30.00,5,1,5,0.13
2013-12-10,38.0,32.7,25.2,35.5,28.1,17.4,95,84,55,30.22,29.97,8,1,8,0.02
2013-12-11,40.0,32.6,23.8,25.4,21.9,16.8,77,65,53,30.30,30.21,5,1,5,0.00
2013-12-12,33.5,28.0,23.4,21.4,12.8,6.1,63,53,37,30.31,30.24,6,2,6,0.00
2013-12-13,43.6,32.0,22.9,22.3,16.8,12.2,68,54,37,30.31,30.20,7,1,7,0.05
2013-12-14,36.2,33.5,31.1,32.7,29.3,21.2,93,85,62,30.29,29.77,4,0,4,0.16
2013-12-15,44.3,36.7,30.6,35.1,29.4,23.9,94,76,52,29.96,29.66,8,3,9,0.09
2013-12-16,41.4,36.4,32.2,29.0,27.8,26.8,80,71,59,30.13,29.95,3,1,3,0.03
2013-12-17,50.8,38.7,26.8,37.7,31.3,24.0,90,76,55,30.09,29.90,8,2,8,0.00
2013-12-18,40.7,33.6,28.3,24.7,22.0,19.4,75,63,48,30.22,30.01,4,1,4,0.00
2013-12-19,61.6,45.7,30.2,30.8,25.2,18.5,68,46,30,30.21,30.09,6,2,6,0.00
2013-12-20,62.3,49.5,35.8,39.1,31.0,26.5,71,50,30,30.14,30.02,3,1,3,0.00
2013-12-21,69.3,60.4,50.2,58.8,48.1,37.5,76,64,56,30.07,29.92,6,3,6,0.00
2013-12-22,68.6,63.0,58.0,60.8,57.4,54.3,92,82,74,30.06,29.87,6,3,6,0.05
2013-12-23,58.5,51.7,35.6,56.5,46.5,25.7,95,83,62,30.25,29.99,4,1,4,0.05
2013-12-24,37.8,30.4,21.4,27.9,19.1,6.4,86,64,44,30.45,30.21,8,2,8,0.00
2013-12-25,31.1,22.6,14.4,16.8,12.3,7.5,80,65,52,30.51,30.32,3,0,3,0.00
2013-12-26,45.4,32.4,20.2,26.6,18.4,13.8,77,58,37,30.36,30.20,7,2,7,0.00
2013-12-27,48.6,33.4,21.1,25.7,20.5,16.4,84,61,36,30.43,30.31,4,1,4,0.00
2013-12-28,53.6,37.9,24.5,28.9,24.1,18.5,80,60,34,30.36,30.14,5,1,5,0.00
2013-12-29,49.1,42.7,39.1,46.3,38.2,27.5,94,84,59,30.14,29.64,4,1,4,0.67
2013-12-30,44.6,38.4,29.2,36.0,31.1,25.2,89,76,58,30.16,29.87,5,1,5,0.00
2013-12-31,42.7,33.6,27.0,27.5,22.9,16.6,88,67,44,30.31,30.11,10,2,10,0.00
2014-1-1,48.2,35.2,26.8,29.9,23.2,18.2,76,62,45,30.37,30.12,3,1,3,0.00
2014-1-2,38.9,31.9,28.1,30.2,26.7,22.5,89,81,71,30.10,29.64,2,0,2,0.05